Location: Windsor
(43.2292°N, 89.3015°W)
Time: 21:27:00
(UTC+00:00)

MOZHAYETS 4 - Pass Details

Date: 04 July 2022
Orbit: 660 x 678 km, 98.2° (Epoch: 16 August)

Event Time Altitude Azimuth Distance (km) Brightness Sun altitude
Exits shadow 07:33:22 10° 131° (SE) 2,081 10.1 -20.6°
Maximum altitude 07:37:25 33° 68° (ENE) 1,129 9.3 -20.3°
Drops below altitude 10° 07:41:32 10° 5° (N) 2,110 11.3 -20.0°
Sets 07:43:55 0° 356° (N) 3,025 12.1 -19.8°
